| time (UTC) | temp F | wind direction | speed knots | gust knots | rain 1hr in | rain 24hr in | rain mn in | humidity % | barometer mb |
| 20260906064054 | 75 | 0 | 0.9 | 3.5 | 0.00 | 0.00 | 0.00 | 53 | 1020.2 |
| 20260906063558 | 76 | 299 | 0.9 | 3.5 | 0.00 | 0.00 | 0.00 | 53 | 1020.2 |
| 20260906063102 | 76 | 299 | 1.7 | 5.2 | 0.00 | 0.00 | 0.00 | 52 | 1020.2 |
| 20260906062557 | 77 | 300 | 2.6 | 5.2 | 0.00 | 0.00 | 0.00 | 51 | 1020.3 |
| 20260906062056 | 77 | 306 | 1.7 | 5.2 | 0.00 | 0.00 | 0.00 | 51 | 1020.4 |
| 20260906061605 | 77 | 319 | 2.6 | 6.1 | 0.00 | 0.00 | 0.00 | 50 | 1020.3 |
| 20260906061056 | 77 | 300 | 2.6 | 6.1 | 0.00 | 0.00 | 0.00 | 50 | 1020.2 |
| 20260906060556 | 78 | 297 | 3.5 | 5.2 | 0.00 | 0.00 | 0.00 | 49 | 1020.3 |
| 20260906060103 | 78 | 336 | 2.6 | 5.2 | 0.00 | 0.00 | 0.00 | 49 | 1020.4 |
| 20260906055558 | 78 | 295 | 3.5 | 7.8 | 0.00 | 0.00 | 0.00 | 48 | 1020.4 |
| 20260906055056 | 79 | 293 | 3.5 | 9.6 | 0.00 | 0.00 | 0.00 | 47 | 1020.4 |
| 20260906054612 | 79 | 298 | 5.2 | 9.6 | 0.00 | 0.00 | 0.00 | 47 | 1020.4 |
| 20260906054056 | 79 | 330 | 6.1 | 9.6 | 0.00 | 0.00 | 0.00 | 47 | 1020.4 |
| 20260906053558 | 79 | 314 | 4.3 | 8.7 | 0.00 | 0.00 | 0.00 | 48 | 1020.4 |
| 20260906053058 | 78 | 304 | 5.2 | 8.7 | 0.00 | 0.00 | 0.00 | 48 | 1020.4 |
| 20260906052554 | 78 | 288 | 5.2 | 7.8 | 0.00 | 0.00 | 0.00 | 48 | 1020.4 |
| 20260906052056 | 78 | 283 | 4.3 | 7.8 | 0.00 | 0.00 | 0.00 | 49 | 1020.4 |
| 20260906051603 | 78 | 318 | 5.2 | 7.8 | 0.00 | 0.00 | 0.00 | 49 | 1020.4 |
| 20260906051059 | 78 | 302 | 4.3 | 6.1 | 0.00 | 0.00 | 0.00 | 50 | 1020.6 |
| 20260906050555 | 78 | 287 | 3.5 | 6.1 | 0.00 | 0.00 | 0.00 | 50 | 1020.6 |
| 20260906050123 | 78 | 297 | 4.3 | 6.1 | 0.00 | 0.00 | 0.00 | 49 | 1020.5 |
| 20260906045556 | 79 | 301 | 3.5 | 7.0 | 0.00 | 0.00 | 0.00 | 49 | 1020.4 |
| 20260906045053 | 79 | 300 | 4.3 | 7.8 | 0.00 | 0.00 | 0.00 | 49 | 1020.4 |
| 20260906044559 | 79 | 295 | 4.3 | 7.8 | 0.00 | 0.00 | 0.00 | 48 | 1020.4 |
| 20260906044056 | 79 | 265 | 4.3 | 7.8 | 0.00 | 0.00 | 0.00 | 48 | 1020.4 |
| 20260906043556 | 79 | 333 | 4.3 | 7.8 | 0.00 | 0.00 | 0.00 | 47 | 1020.3 |
| 20260906043107 | 79 | 309 | 4.3 | 7.8 | 0.00 | 0.00 | 0.00 | 47 | 1020.3 |
| 20260906042555 | 80 | 285 | 4.3 | 10.4 | 0.00 | 0.00 | 0.00 | 47 | 1020.4 |
| 20260906042054 | 80 | 264 | 5.2 | 10.4 | 0.00 | 0.00 | 0.00 | 47 | 1020.5 |
| 20260906041602 | 80 | 283 | 5.2 | 8.7 | 0.00 | 0.00 | 0.00 | 47 | 1020.5 |
| 20260906041054 | 80 | 315 | 4.3 | 8.7 | 0.00 | 0.00 | 0.00 | 47 | 1020.3 |
| 20260906040555 | 80 | 288 | 4.3 | 10.4 | 0.00 | 0.00 | 0.00 | 46 | 1020.4 |
| 20260906040135 | 80 | 304 | 3.5 | 10.4 | 0.00 | 0.00 | 0.00 | 46 | 1020.3 |
| 20260906035600 | 80 | 288 | 4.3 | 7.8 | 0.00 | 0.00 | 0.00 | 46 | 1020.3 |
| 20260906035057 | 81 | 288 | 4.3 | 9.6 | 0.00 | 0.00 | 0.00 | 45 | 1020.3 |
| 20260906034558 | 81 | 288 | 4.3 | 10.4 | 0.00 | 0.00 | 0.00 | 45 | 1020.2 |
| 20260906034057 | 81 | 293 | 5.2 | 10.4 | 0.00 | 0.00 | 0.00 | 44 | 1020.1 |
| 20260906033554 | 81 | 295 | 6.1 | 11.3 | 0.00 | 0.00 | 0.00 | 44 | 1020.1 |
| 20260906033111 | 81 | 295 | 7.0 | 11.3 | 0.00 | 0.00 | 0.00 | 44 | 1019.9 |
| 20260906032556 | 81 | 312 | 6.1 | 9.6 | 0.00 | 0.00 | 0.00 | 44 | 1019.9 |
| 20260906032054 | 81 | 304 | 5.2 | 10.4 | 0.00 | 0.00 | 0.00 | 43 | 1019.9 |
| 20260906031603 | 82 | 294 | 5.2 | 10.4 | 0.00 | 0.00 | 0.00 | 43 | 1019.9 |
| 20260906031053 | 82 | 288 | 6.1 | 10.4 | 0.00 | 0.00 | 0.00 | 43 | 1019.8 |
| 20260906030556 | 82 | 295 | 4.3 | 9.6 | 0.00 | 0.00 | 0.00 | 43 | 1019.7 |
| 20260906025556 | 82 | 345 | 5.2 | 9.6 | 0.00 | 0.00 | 0.00 | 43 | 1019.6 |
| 20260906025056 | 82 | 309 | 4.3 | 7.8 | 0.00 | 0.00 | 0.00 | 43 | 1019.5 |
| 20260906024618 | 82 | 288 | 4.3 | 8.7 | 0.00 | 0.00 | 0.00 | 43 | 1019.5 |
| 20260906024056 | 82 | 297 | 5.2 | 8.7 | 0.00 | 0.00 | 0.00 | 43 | 1019.4 |
| 20260906023556 | 82 | 328 | 5.2 | 8.7 | 0.00 | 0.00 | 0.00 | 42 | 1019.3 |
| 20260906023102 | 83 | 303 | 4.3 | 8.7 | 0.00 | 0.00 | 0.00 | 43 | 1019.2 |
| 20260906022552 | 82 | 269 | 5.2 | 8.7 | 0.00 | 0.00 | 0.00 | 43 | 1019.2 |
| 20260906022052 | 82 | 310 | 4.3 | 7.8 | 0.00 | 0.00 | 0.00 | 43 | 1019.2 |
| 20260906021609 | 82 | 295 | 4.3 | 7.8 | 0.00 | 0.00 | 0.00 | 43 | 1019.2 |
| 20260906021057 | 83 | 285 | 2.6 | 7.8 | 0.00 | 0.00 | 0.00 | 42 | 1019.1 |
| 20260906020555 | 83 | 294 | 4.3 | 7.8 | 0.00 | 0.00 | 0.00 | 41 | 1019.1 |
| 20260906020119 | 83 | 304 | 4.3 | 7.0 | 0.00 | 0.00 | 0.00 | 40 | 1019.1 |
| 20260906015556 | 84 | 296 | 3.5 | 7.0 | 0.00 | 0.00 | 0.00 | 39 | 1019.0 |
| 20260906015056 | 84 | 295 | 3.5 | 7.0 | 0.00 | 0.00 | 0.00 | 39 | 1018.8 |
| 20260906014609 | 84 | 319 | 4.3 | 7.0 | 0.00 | 0.00 | 0.00 | 38 | 1018.8 |
| 20260906014055 | 85 | 321 | 3.5 | 7.8 | 0.00 | 0.00 | 0.00 | 38 | 1018.7 |
| 20260906013558 | 85 | 297 | 4.3 | 7.8 | 0.00 | 0.00 | 0.00 | 37 | 1018.7 |
| 20260906013101 | 86 | 295 | 4.3 | 7.8 | 0.00 | 0.00 | 0.00 | 36 | 1018.7 |
| 20260906012552 | 86 | 292 | 3.5 | 8.7 | 0.00 | 0.00 | 0.00 | 35 | 1018.7 |
| 20260906012052 | 87 | 281 | 4.3 | 8.7 | 0.00 | 0.00 | 0.00 | 35 | 1018.7 |
| 20260906011601 | 87 | 304 | 5.2 | 8.7 | 0.00 | 0.00 | 0.00 | 34 | 1018.8 |
| 20260906011055 | 88 | 285 | 3.5 | 7.8 | 0.00 | 0.00 | 0.00 | 34 | 1018.7 |
| 20260906010555 | 88 | 283 | 3.5 | 8.7 | 0.00 | 0.00 | 0.00 | 33 | 1018.7 |
| 20260906010113 | 88 | 321 | 4.3 | 8.7 | 0.00 | 0.00 | 0.00 | 33 | 1018.7 |
| 20260906005556 | 88 | 309 | 4.3 | 7.8 | 0.00 | 0.00 | 0.00 | 33 | 1018.7 |
| 20260906005056 | 88 | 328 | 4.3 | 7.8 | 0.00 | 0.00 | 0.00 | 33 | 1018.7 |
| 20260906004603 | 89 | 359 | 2.6 | 9.6 | 0.00 | 0.00 | 0.00 | 33 | 1018.7 |
| 20260906004056 | 89 | 345 | 3.5 | 9.6 | 0.00 | 0.00 | 0.00 | 33 | 1018.7 |
| 20260906003554 | 89 | 345 | 5.2 | 9.6 | 0.00 | 0.00 | 0.00 | 32 | 1018.7 |
| 20260906003105 | 90 | 360 | 5.2 | 8.7 | 0.00 | 0.00 | 0.00 | 31 | 1018.8 |
| 20260906002555 | 90 | 309 | 4.3 | 10.4 | 0.00 | 0.00 | 0.00 | 31 | 1018.8 |
| 20260906002055 | 90 | 283 | 3.5 | 12.2 | 0.00 | 0.00 | 0.00 | 32 | 1018.8 |
| 20260906001604 | 90 | 297 | 5.2 | 12.2 | 0.00 | 0.00 | 0.00 | 31 | 1018.7 |
| 20260906001054 | 90 | 310 | 6.1 | 12.2 | 0.00 | 0.00 | 0.00 | 31 | 1018.7 |
| 20260906000556 | 91 | 318 | 4.3 | 9.6 | 0.00 | 0.00 | 0.00 | 31 | 1018.6 |
| 20260905235601 | 90 | 279 | 4.3 | 9.6 | 0.00 | 0.00 | 0.00 | 31 | 1018.7 |
| 20260905235057 | 90 | 340 | 4.3 | 11.3 | 0.00 | 0.00 | 0.00 | 32 | 1018.6 |
| 20260905234614 | 91 | 359 | 6.1 | 11.3 | 0.00 | 0.00 | 0.00 | 30 | 1018.5 |
| 20260905234058 | 92 | 358 | 3.5 | 7.0 | 0.00 | 0.00 | 0.00 | 29 | 1018.5 |
| 20260905233556 | 91 | 354 | 2.6 | 7.0 | 0.00 | 0.00 | 0.00 | 30 | 1018.6 |
| 20260905233103 | 91 | 288 | 1.7 | 8.7 | 0.00 | 0.00 | 0.00 | 30 | 1018.6 |
| 20260905232555 | 90 | 329 | 4.3 | 8.7 | 0.00 | 0.00 | 0.00 | 31 | 1018.6 |
| 20260905232056 | 90 | 360 | 4.3 | 8.7 | 0.00 | 0.00 | 0.00 | 32 | 1018.6 |
| 20260905231605 | 91 | 311 | 4.3 | 8.7 | 0.00 | 0.00 | 0.00 | 30 | 1018.5 |
| 20260905231056 | 92 | 18 | 4.3 | 8.7 | 0.00 | 0.00 | 0.00 | 29 | 1018.5 |
| 20260905230554 | 92 | 339 | 3.5 | 8.7 | 0.00 | 0.00 | 0.00 | 29 | 1018.6 |
| 20260905230129 | 92 | 319 | 4.3 | 9.6 | 0.00 | 0.00 | 0.00 | 29 | 1018.5 |
| 20260905225559 | 92 | 299 | 4.3 | 10.4 | 0.00 | 0.02 | 0.00 | 29 | 1018.6 |
| 20260905225056 | 92 | 302 | 5.2 | 10.4 | 0.00 | 0.02 | 0.00 | 29 | 1018.6 |
| 20260905224604 | 92 | 295 | 1.7 | 8.7 | 0.00 | 0.02 | 0.00 | 31 | 1018.6 |
| 20260905224056 | 91 | 302 | 4.3 | 12.2 | 0.00 | 0.02 | 0.00 | 30 | 1018.7 |
| 20260905223555 | 91 | 301 | 7.0 | 13.9 | 0.00 | 0.02 | 0.00 | 30 | 1018.7 |
| 20260905223104 | 92 | 331 | 6.1 | 13.9 | 0.00 | 0.02 | 0.00 | 30 | 1018.7 |
| 20260905222554 | 92 | 312 | 5.2 | 12.2 | 0.00 | 0.02 | 0.00 | 30 | 1018.8 |
| 20260905222055 | 92 | 307 | 5.2 | 10.4 | 0.00 | 0.02 | 0.00 | 30 | 1018.8 |
| 20260905221603 | 93 | 5 | 4.3 | 9.6 | 0.00 | 0.02 | 0.00 | 30 | 1018.8 |
| 20260905221057 | 92 | 359 | 4.3 | 12.2 | 0.00 | 0.02 | 0.00 | 31 | 1018.8 |
| 20260905220554 | 92 | 359 | 4.3 | 12.2 | 0.00 | 0.02 | 0.00 | 31 | 1018.8 |
| 20260905220110 | 92 | 306 | 3.5 | 10.4 | 0.00 | 0.02 | 0.00 | 31 | 1019.0 |
| 20260905215554 | 91 | 347 | 4.3 | 11.3 | 0.00 | 0.02 | 0.00 | 31 | 1019.1 |
| 20260905215059 | 91 | 359 | 6.1 | 11.3 | 0.00 | 0.02 | 0.00 | 34 | 1019.1 |
| 20260905214604 | 92 | 351 | 4.3 | 10.4 | 0.00 | 0.02 | 0.00 | 31 | 1019.2 |
| 20260905214056 | 91 | 269 | 3.5 | 8.7 | 0.00 | 0.02 | 0.00 | 33 | 1019.3 |
| 20260905213555 | 90 | 331 | 4.3 | 8.7 | 0.00 | 0.02 | 0.00 | 34 | 1019.2 |
| 20260905213103 | 90 | 352 | 5.2 | 13.0 | 0.00 | 0.02 | 0.00 | 35 | 1019.4 |
| 20260905212552 | 91 | 1 | 4.3 | 13.0 | 0.00 | 0.02 | 0.00 | 33 | 1019.4 |
| 20260905212054 | 91 | 359 | 5.2 | 8.7 | 0.00 | 0.02 | 0.00 | 34 | 1019.6 |
| 20260905211605 | 91 | 15 | 2.6 | 8.7 | 0.00 | 0.02 | 0.00 | 33 | 1019.6 |
| 20260905211053 | 91 | 354 | 5.2 | 10.4 | 0.00 | 0.02 | 0.00 | 33 | 1019.7 |
| 20260905210554 | 91 | 327 | 4.3 | 10.4 | 0.00 | 0.02 | 0.00 | 34 | 1019.8 |
| 20260905205555 | 91 | 354 | 3.5 | 7.8 | 0.00 | 0.02 | 0.00 | 34 | 1019.9 |
| 20260905205054 | 91 | 248 | 1.7 | 7.8 | 0.00 | 0.02 | 0.00 | 32 | 1019.9 |
| 20260905204558 | 91 | 348 | 3.5 | 7.0 | 0.00 | 0.02 | 0.00 | 33 | 1020.2 |
| 20260905204053 | 90 | 26 | 0.9 | 10.4 | 0.00 | 0.02 | 0.00 | 33 | 1020.1 |
| 20260905203552 | 90 | 295 | 5.2 | 10.4 | 0.00 | 0.02 | 0.00 | 34 | 1020.2 |
| 20260905203104 | 90 | 349 | 4.3 | 10.4 | 0.00 | 0.02 | 0.00 | 34 | 1020.2 |
| 20260905202554 | 90 | 15 | 1.7 | 10.4 | 0.00 | 0.02 | 0.00 | 34 | 1020.3 |
| 20260905202054 | 90 | 309 | 3.5 | 10.4 | 0.00 | 0.02 | 0.00 | 33 | 1020.5 |
| 20260905201609 | 90 | 1 | 4.3 | 9.6 | 0.00 | 0.02 | 0.00 | 33 | 1020.5 |
| 20260905201053 | 90 | 357 | 4.3 | 9.6 | 0.00 | 0.02 | 0.00 | 33 | 1020.5 |
| 20260905200553 | 89 | 321 | 0.9 | 13.0 | 0.00 | 0.02 | 0.00 | 34 | 1020.6 |
| 20260905200109 | 90 | 278 | 3.5 | 13.0 | 0.00 | 0.02 | 0.00 | 34 | 1020.6 |
| 20260905195553 | 89 | 298 | 3.5 | 13.0 | 0.00 | 0.02 | 0.00 | 34 | 1020.6 |
| 20260905195056 | 89 | 359 | 7.0 | 11.3 | 0.00 | 0.02 | 0.00 | 34 | 1020.6 |
| 20260905194600 | 89 | 335 | 3.5 | 8.7 | 0.00 | 0.02 | 0.00 | 34 | 1020.7 |
| 20260905194056 | 89 | 340 | 3.5 | 7.0 | 0.00 | 0.02 | 0.00 | 34 | 1020.8 |
| 20260905193557 | 88 | 360 | 3.5 | 6.1 | 0.00 | 0.02 | 0.00 | 35 | 1020.9 |
| 20260905193113 | 88 | 1 | 1.7 | 5.2 | 0.00 | 0.02 | 0.00 | 34 | 1021.0 |
| 20260905192554 | 88 | 49 | 2.6 | 5.2 | 0.00 | 0.02 | 0.00 | 34 | 1021.0 |
| 20260905192053 | 88 | 32 | 1.7 | 4.3 | 0.00 | 0.02 | 0.00 | 34 | 1021.1 |
| 20260905191600 | 88 | 53 | 1.7 | 7.8 | 0.00 | 0.02 | 0.00 | 34 | 1021.2 |
| 20260905191053 | 88 | 37 | 1.7 | 7.8 | 0.00 | 0.02 | 0.00 | 35 | 1021.3 |
| 20260905190553 | 88 | 55 | 3.5 | 7.8 | 0.00 | 0.02 | 0.00 | 35 | 1021.4 |
| 20260905190059 | 88 | 1 | 2.6 | 7.8 | 0.00 | 0.02 | 0.00 | 36 | 1021.4 |
| 20260905185553 | 88 | 319 | 2.6 | 7.8 | 0.00 | 0.02 | 0.00 | 35 | 1021.6 |
| 20260905185053 | 88 | 0 | 4.3 | 7.8 | 0.00 | 0.02 | 0.00 | 36 | 1021.7 |
| 20260905184604 | 87 | 252 | 3.5 | 7.8 | 0.00 | 0.02 | 0.00 | 36 | 1021.8 |
| 20260905184054 | 87 | 359 | 4.3 | 7.0 | 0.00 | 0.02 | 0.00 | 37 | 1021.8 |
| 20260905183554 | 87 | 17 | 2.6 | 7.0 | 0.00 | 0.02 | 0.00 | 37 | 1021.9 |
| 20260905183103 | 87 | 300 | 1.7 | 4.3 | 0.00 | 0.02 | 0.00 | 37 | 1022.0 |
| 20260905182555 | 87 | 0 | 1.7 | 4.3 | 0.00 | 0.02 | 0.00 | 37 | 1022.1 |
| 20260905182054 | 87 | 104 | 1.7 | 6.1 | 0.00 | 0.02 | 0.00 | 37 | 1022.0 |
| 20260905181607 | 87 | 0 | 2.6 | 6.1 | 0.00 | 0.02 | 0.00 | 36 | 1022.1 |
| 20260905181057 | 87 | 105 | 0.9 | 8.7 | 0.00 | 0.02 | 0.00 | 37 | 1022.2 |
| 20260905180554 | 86 | 0 | 3.5 | 8.7 | 0.00 | 0.02 | 0.00 | 37 | 1022.3 |
| 20260905175556 | 85 | 346 | 0.9 | 4.3 | 0.00 | 0.02 | 0.00 | 40 | 1022.2 |
| 20260905175053 | 85 | 338 | 0.9 | 6.1 | 0.00 | 0.02 | 0.00 | 38 | 1022.3 |
| 20260905174613 | 85 | 338 | 2.6 | 6.1 | 0.00 | 0.02 | 0.00 | 39 | 1022.3 |
| 20260905174054 | 85 | 350 | 0.9 | 6.1 | 0.00 | 0.02 | 0.00 | 40 | 1022.3 |
| 20260905173552 | 85 | 320 | 1.7 | 6.1 | 0.00 | 0.02 | 0.00 | 40 | 1022.4 |
| 20260905173104 | 84 | 359 | 2.6 | 6.1 | 0.00 | 0.02 | 0.00 | 41 | 1022.4 |
| 20260905172556 | 84 | 360 | 3.5 | 6.1 | 0.00 | 0.02 | 0.00 | 41 | 1022.5 |
| 20260905172056 | 85 | 207 | 2.6 | 4.3 | 0.00 | 0.02 | 0.00 | 40 | 1022.5 |
| 20260905171607 | 84 | 139 | 1.7 | 3.5 | 0.00 | 0.02 | 0.00 | 41 | 1022.4 |
| 20260905171056 | 84 | 59 | 1.7 | 5.2 | 0.00 | 0.02 | 0.00 | 42 | 1022.5 |
| 20260905170554 | 84 | 54 | 2.6 | 5.2 | 0.00 | 0.02 | 0.00 | 41 | 1022.5 |
| 20260905165557 | 83 | 51 | 2.6 | 4.3 | 0.00 | 0.02 | 0.00 | 43 | 1022.5 |
| 20260905165054 | 83 | 39 | 1.7 | 4.3 | 0.00 | 0.02 | 0.00 | 44 | 1022.6 |
| 20260905164605 | 83 | 26 | 2.6 | 4.3 | 0.00 | 0.02 | 0.00 | 45 | 1022.6 |
| 20260905164054 | 82 | 0 | 1.7 | 4.3 | 0.00 | 0.02 | 0.00 | 46 | 1022.7 |
| 20260905163555 | 82 | 58 | 0.9 | 4.3 | 0.00 | 0.02 | 0.00 | 48 | 1022.6 |
| 20260905163102 | 82 | 60 | 1.7 | 4.3 | 0.00 | 0.02 | 0.00 | 48 | 1022.6 |
| 20260905162555 | 82 | 60 | 1.7 | 4.3 | 0.00 | 0.02 | 0.00 | 47 | 1022.6 |
| 20260905162055 | 82 | 82 | 1.7 | 4.3 | 0.00 | 0.02 | 0.00 | 49 | 1022.5 |
| 20260905161559 | 81 | 139 | 0.9 | 3.5 | 0.00 | 0.02 | 0.00 | 49 | 1022.5 |
| 20260905161054 | 81 | 35 | 0.9 | 3.5 | 0.00 | 0.02 | 0.00 | 51 | 1022.5 |
| 20260905160554 | 81 | 35 | 0.9 | 3.5 | 0.00 | 0.02 | 0.00 | 52 | 1022.6 |
| 20260905160107 | 80 | 0 | 0.9 | 3.5 | 0.00 | 0.02 | 0.00 | 53 | 1022.7 |
| 20260905155554 | 80 | 49 | 1.7 | 3.5 | 0.00 | 0.02 | 0.00 | 53 | 1022.7 |
| 20260905155053 | 79 | 49 | 0.9 | 3.5 | 0.00 | 0.02 | 0.00 | 56 | 1022.6 |
| 20260905154608 | 79 | 0 | 0.9 | 2.6 | 0.00 | 0.02 | 0.00 | 56 | 1022.6 |
| 20260905154055 | 79 | 56 | 0.9 | 3.5 | 0.00 | 0.02 | 0.00 | 57 | 1022.6 |
| 20260905153555 | 78 | 0 | 1.7 | 3.5 | 0.00 | 0.02 | 0.00 | 58 | 1022.6 |
| 20260905153100 | 78 | 0 | 0.9 | 2.6 | 0.00 | 0.02 | 0.00 | 59 | 1022.6 |
| 20260905152554 | 78 | 304 | 0.9 | 2.6 | 0.00 | 0.02 | 0.00 | 61 | 1022.8 |
| 20260905152054 | 77 | 297 | 0.9 | 3.5 | 0.00 | 0.02 | 0.00 | 61 | 1022.6 |
| 20260905151601 | 76 | 297 | 0.9 | 3.5 | 0.00 | 0.02 | 0.00 | 64 | 1022.5 |
| 20260905151054 | 76 | 295 | 0.9 | 3.5 | 0.00 | 0.02 | 0.00 | 66 | 1022.4 |
| 20260905150600 | 75 | 285 | 1.7 | 3.5 | 0.00 | 0.02 | 0.00 | 69 | 1022.4 |
| 20260905150115 | 74 | 243 | 0.0 | 2.6 | 0.00 | 0.02 | 0.00 | 72 | 1022.6 |
| 20260905145554 | 74 | 238 | 0.0 | 1.7 | 0.00 | 0.02 | 0.00 | 73 | 1022.6 |
| 20260905145054 | 73 | 0 | 0.0 | 0.9 | 0.00 | 0.02 | 0.00 | 74 | 1022.5 |
| 20260905144602 | 73 | 0 | 0.0 | 1.7 | 0.00 | 0.02 | 0.00 | 75 | 1022.5 |
| 20260905144056 | 73 | 0 | 0.0 | 2.6 | 0.00 | 0.02 | 0.00 | 76 | 1022.5 |
| 20260905143552 | 73 | 0 | 0.9 | 2.6 | 0.00 | 0.02 | 0.00 | 77 | 1022.4 |
| 20260905143104 | 72 | 226 | 1.7 | 2.6 | 0.00 | 0.02 | 0.00 | 78 | 1022.4 |
| 20260905142556 | 72 | 224 | 0.9 | 2.6 | 0.00 | 0.02 | 0.00 | 80 | 1022.4 |
| 20260905142053 | 71 | 0 | 0.0 | 0.9 | 0.00 | 0.02 | 0.00 | 83 | 1022.4 |
| 20260905141603 | 70 | 0 | 0.0 | 0.0 | 0.00 | 0.02 | 0.00 | 86 | 1022.3 |
| 20260905141055 | 69 | 0 | 0.0 | 0.9 | 0.00 | 0.02 | 0.00 | 87 | 1022.3 |
| 20260905140554 | 68 | 0 | 0.0 | 1.7 | 0.00 | 0.02 | 0.00 | 87 | 1022.2 |
| 20260905140106 | 67 | 0 | 0.0 | 1.7 | 0.00 | 0.02 | 0.00 | 88 | 1022.2 |
| 20260905135558 | 66 | 0 | 0.0 | 1.7 | 0.00 | 0.02 | 0.00 | 89 | 1022.1 |
| 20260905135052 | 66 | 224 | 0.0 | 1.7 | 0.00 | 0.02 | 0.00 | 89 | 1022.1 |
| 20260905134605 | 65 | 224 | 0.9 | 1.7 | 0.00 | 0.02 | 0.00 | 89 | 1022.1 |
| 20260905134052 | 65 | 224 | 0.0 | 1.7 | 0.00 | 0.02 | 0.00 | 89 | 1022.0 |
| 20260905133556 | 65 | 0 | 0.0 | 2.6 | 0.00 | 0.02 | 0.00 | 89 | 1022.0 |
| 20260905133105 | 65 | 0 | 0.0 | 3.5 | 0.00 | 0.02 | 0.00 | 89 | 1021.8 |
| 20260905132558 | 64 | 224 | 0.9 | 3.5 | 0.00 | 0.02 | 0.00 | 88 | 1021.7 |
| 20260905132053 | 65 | 224 | 0.9 | 3.5 | 0.00 | 0.02 | 0.00 | 88 | 1021.7 |
| 20260905131607 | 65 | 223 | 1.7 | 2.6 | 0.00 | 0.02 | 0.00 | 89 | 1021.5 |
| 20260905131054 | 65 | 223 | 0.9 | 2.6 | 0.00 | 0.02 | 0.00 | 89 | 1021.5 |
| 20260905130555 | 65 | 223 | 0.9 | 1.7 | 0.00 | 0.02 | 0.00 | 89 | 1021.5 |
| 20260905130108 | 64 | 223 | 0.0 | 1.7 | 0.00 | 0.02 | 0.00 | 88 | 1021.6 |
| 20260905125552 | 65 | 223 | 0.0 | 1.7 | 0.00 | 0.02 | 0.00 | 88 | 1021.5 |
| 20260905125052 | 65 | 223 | 0.0 | 1.7 | 0.00 | 0.02 | 0.00 | 88 | 1021.5 |
| 20260905124604 | 65 | 0 | 0.0 | 2.6 | 0.00 | 0.02 | 0.00 | 88 | 1021.3 |
| 20260905124051 | 65 | 0 | 0.0 | 2.6 | 0.00 | 0.02 | 0.00 | 88 | 1021.3 |
| 20260905123555 | 65 | 0 | 0.9 | 3.5 | 0.00 | 0.02 | 0.00 | 88 | 1021.1 |
| 20260905123102 | 65 | 0 | 1.7 | 3.5 | 0.00 | 0.02 | 0.00 | 88 | 1021.1 |
| 20260905122556 | 65 | 213 | 1.7 | 3.5 | 0.00 | 0.02 | 0.00 | 88 | 1021.0 |
| 20260905122055 | 65 | 75 | 0.0 | 2.6 | 0.00 | 0.02 | 0.00 | 87 | 1021.0 |
| 20260905121604 | 65 | 75 | 0.0 | 2.6 | 0.00 | 0.02 | 0.00 | 87 | 1021.1 |
| 20260905121055 | 65 | 75 | 0.0 | 0.0 | 0.00 | 0.02 | 0.00 | 87 | 1021.0 |
| 20260905120554 | 66 | 0 | 0.0 | 0.0 | 0.00 | 0.02 | 0.00 | 87 | 1021.0 |
| 20260905120105 | 66 | 0 | 0.0 | 0.0 | 0.00 | 0.02 | 0.00 | 87 | 1021.0 |
| 20260905115554 | 66 | 0 | 0.0 | 0.0 | 0.00 | 0.02 | 0.00 | 87 | 1021.0 |
| 20260905115056 | 66 | 0 | 0.0 | 0.0 | 0.00 | 0.02 | 0.00 | 86 | 1020.9 |
| 20260905114605 | 67 | 0 | 0.0 | 0.0 | 0.00 | 0.02 | 0.00 | 86 | 1020.9 |
| 20260905114054 | 67 | 0 | 0.0 | 0.0 | 0.00 | 0.02 | 0.00 | 86 | 1020.9 |
| 20260905113554 | 67 | 0 | 0.0 | 0.0 | 0.00 | 0.02 | 0.00 | 85 | 1021.0 |
| 20260905113117 | 67 | 0 | 0.0 | 0.0 | 0.00 | 0.02 | 0.00 | 85 | 1020.9 |
| 20260905112554 | 67 | 0 | 0.0 | 0.0 | 0.00 | 0.02 | 0.00 | 85 | 1021.0 |
| 20260905112055 | 67 | 0 | 0.0 | 0.0 | 0.00 | 0.02 | 0.00 | 85 | 1020.9 |
| 20260905111602 | 68 | 0 | 0.0 | 0.0 | 0.00 | 0.02 | 0.00 | 84 | 1021.0 |
| 20260905111055 | 68 | 0 | 0.0 | 0.0 | 0.00 | 0.02 | 0.00 | 84 | 1021.0 |
| 20260905110555 | 68 | 0 | 0.0 | 0.0 | 0.00 | 0.02 | 0.00 | 84 | 1021.0 |
| 20260905110101 | 68 | 0 | 0.0 | 0.0 | 0.00 | 0.02 | 0.00 | 84 | 1021.0 |
| 20260905105554 | 69 | 0 | 0.0 | 0.0 | 0.00 | 0.02 | 0.00 | 84 | 1021.0 |
| 20260905105056 | 69 | 0 | 0.0 | 0.0 | 0.00 | 0.02 | 0.00 | 83 | 1020.9 |
| 20260905104605 | 69 | 0 | 0.0 | 0.0 | 0.00 | 0.02 | 0.00 | 83 | 1020.8 |
| 20260905104054 | 69 | 0 | 0.0 | 0.0 | 0.00 | 0.02 | 0.00 | 83 | 1020.9 |
| 20260905103554 | 69 | 0 | 0.0 | 0.0 | 0.00 | 0.02 | 0.00 | 82 | 1021.0 |
| 20260905103103 | 69 | 0 | 0.0 | 0.0 | 0.00 | 0.02 | 0.00 | 82 | 1020.9 |
| 20260905102555 | 69 | 0 | 0.0 | 0.0 | 0.00 | 0.02 | 0.00 | 83 | 1020.8 |
| 20260905102054 | 69 | 0 | 0.0 | 0.0 | 0.00 | 0.02 | 0.00 | 83 | 1020.8 |
| 20260905101600 | 69 | 0 | 0.0 | 0.0 | 0.00 | 0.02 | 0.00 | 83 | 1020.9 |
| 20260905101055 | 69 | 0 | 0.0 | 0.0 | 0.00 | 0.02 | 0.00 | 83 | 1020.8 |
| 20260905100555 | 69 | 0 | 0.0 | 0.0 | 0.00 | 0.02 | 0.00 | 83 | 1020.8 |
| 20260905100105 | 69 | 0 | 0.0 | 0.0 | 0.00 | 0.02 | 0.00 | 83 | 1020.7 |
| 20260905095554 | 69 | 0 | 0.0 | 0.0 | 0.00 | 0.02 | 0.00 | 83 | 1020.7 |
| 20260905095055 | 69 | 0 | 0.0 | 0.0 | 0.00 | 0.02 | 0.00 | 83 | 1020.7 |
| 20260905094602 | 69 | 0 | 0.0 | 0.0 | 0.00 | 0.02 | 0.00 | 83 | 1020.6 |
| 20260905094054 | 69 | 0 | 0.0 | 0.0 | 0.00 | 0.02 | 0.00 | 83 | 1020.7 |
| 20260905093555 | 69 | 0 | 0.0 | 0.0 | 0.00 | 0.02 | 0.00 | 83 | 1020.7 |
| 20260905093107 | 69 | 0 | 0.0 | 0.0 | 0.00 | 0.02 | 0.00 | 84 | 1020.7 |
| 20260905092557 | 70 | 0 | 0.0 | 0.0 | 0.00 | 0.02 | 0.00 | 83 | 1020.7 |
| 20260905092054 | 70 | 0 | 0.0 | 0.0 | 0.00 | 0.02 | 0.00 | 83 | 1020.8 |
| 20260905091604 | 70 | 0 | 0.0 | 0.0 | 0.00 | 0.02 | 0.00 | 83 | 1020.8 |
| 20260905091054 | 70 | 0 | 0.0 | 0.0 | 0.00 | 0.02 | 0.00 | 83 | 1020.8 |
| 20260905090555 | 70 | 0 | 0.0 | 0.0 | 0.00 | 0.02 | 0.00 | 83 | 1020.8 |
| 20260905085555 | 70 | 0 | 0.0 | 0.0 | 0.00 | 0.02 | 0.00 | 83 | 1021.0 |
| 20260905085054 | 70 | 0 | 0.0 | 0.0 | 0.00 | 0.02 | 0.00 | 83 | 1021.0 |
| 20260905084603 | 70 | 0 | 0.0 | 0.0 | 0.00 | 0.02 | 0.00 | 83 | 1020.9 |
| 20260905084056 | 70 | 0 | 0.0 | 0.0 | 0.00 | 0.02 | 0.00 | 83 | 1020.9 |
| 20260905083555 | 70 | 0 | 0.0 | 0.0 | 0.00 | 0.02 | 0.00 | 83 | 1020.9 |
| 20260905083101 | 70 | 0 | 0.0 | 0.0 | 0.00 | 0.02 | 0.00 | 83 | 1020.9 |
| 20260905082554 | 70 | 0 | 0.0 | 0.0 | 0.00 | 0.02 | 0.00 | 83 | 1021.0 |
| 20260905082054 | 70 | 0 | 0.0 | 0.0 | 0.00 | 0.02 | 0.00 | 83 | 1020.9 |
| 20260905081613 | 70 | 0 | 0.0 | 0.0 | 0.00 | 0.02 | 0.00 | 83 | 1021.0 |
| 20260905081055 | 70 | 0 | 0.0 | 0.0 | 0.00 | 0.02 | 0.00 | 83 | 1021.0 |
| 20260905080557 | 70 | 0 | 0.0 | 0.0 | 0.00 | 0.02 | 0.00 | 83 | 1021.2 |
| 20260905080101 | 70 | 0 | 0.0 | 0.0 | 0.00 | 0.02 | 0.00 | 83 | 1021.1 |
| 20260905075555 | 70 | 0 | 0.0 | 0.0 | 0.00 | 0.02 | 0.00 | 83 | 1021.0 |
| 20260905075054 | 70 | 0 | 0.0 | 0.0 | 0.00 | 0.02 | 0.00 | 83 | 1021.2 |
| 20260905074600 | 70 | 0 | 0.0 | 0.0 | 0.00 | 0.02 | 0.00 | 83 | 1021.1 |
| 20260905074054 | 70 | 0 | 0.0 | 0.0 | 0.00 | 0.02 | 0.00 | 83 | 1021.2 |
| 20260905073556 | 70 | 0 | 0.0 | 0.0 | 0.00 | 0.02 | 0.00 | 83 | 1021.3 |
| 20260905073103 | 70 | 0 | 0.0 | 0.0 | 0.00 | 0.02 | 0.00 | 82 | 1021.3 |
| 20260905072555 | 70 | 0 | 0.0 | 0.0 | 0.00 | 0.02 | 0.00 | 82 | 1021.3 |
| 20260905072054 | 70 | 0 | 0.0 | 0.9 | 0.00 | 0.02 | 0.00 | 82 | 1021.2 |
| 20260905071608 | 70 | 0 | 0.0 | 0.9 | 0.00 | 0.02 | 0.00 | 82 | 1021.3 |
| 20260905071054 | 70 | 0 | 0.0 | 0.9 | 0.00 | 0.02 | 0.00 | 82 | 1021.3 |
| 20260905070554 | 70 | 0 | 0.0 | 0.9 | 0.00 | 0.02 | 0.00 | 81 | 1021.3 |
| 20260905070105 | 70 | 0 | 0.0 | 0.9 | 0.00 | 0.02 | 0.00 | 81 | 1021.2 |
| 20260905065554 | 71 | 0 | 0.0 | 0.9 | 0.00 | 0.02 | 0.02 | 80 | 1021.3 |
| 20260905065054 | 71 | 0 | 0.0 | 0.9 | 0.00 | 0.02 | 0.02 | 80 | 1021.5 |
| 20260905064601 | 71 | 0 | 0.0 | 0.9 | 0.00 | 0.02 | 0.02 | 79 | 1021.4 |